Location: Cabrera Baja
(40.4089°N, 4.3354°W)
Time: 03:20:49
(UTC+00:00)

Cosmos 2221 Rocket - Pass Details

Date: 14 July 2020
Orbit: 619 x 649 km, 82.5° (Epoch: 03 August)

Event Time Altitude Azimuth Distance (km) Brightness Sun altitude
Rises 02:11:30 0° 356° (N) 2,907 7.9 -23.0°
Reaches altitude 10° 02:13:46 10° 0° (N) 1,994 7.0 -22.8°
Maximum altitude 02:18:07 59° 80° (E) 720 4.0 -22.5°
Enters shadow 02:19:26 40° 138° (SE) 914 4.2 -22.3°
